Flight Track Log - Related Links

Times and Time Zones

All times are in EDT time to prevent confusion due to time zone crossing. See the EJA951 flight status page for this flight to view local times or setup timezone preferences in your user account.

Time Position Orientation Groundspeed Altitude Reporting Facility
EDT Latitude Longitude Course Direction KTS MPH feet Rate Location/Type
Fri 02:39:00 PM 33.9167 -84.2833 174° South 179 206 2,900  Level Atlanta TRACON
Fri 02:39:54 PM 33.9333 -84.3167 301° West 224 258 4,800 1,579 Climbing Atlanta TRACON
Fri 02:40:54 PM 33.8667 -84.3667 212° Southwest 282 325 5,900 600 Climbing Atlanta TRACON
Fri 02:41:54 PM 33.7833 -84.4000 198° South 314 361 6,000 50 Climbing Atlanta TRACON
Fri 02:42:54 PM 33.7000 -84.4000 180° South 304 350 6,000  Level Atlanta TRACON
Fri 02:43:54 PM 33.6167 -84.4000 180° South 344 396 6,000  Level Atlanta TRACON
Fri 02:44:00 PM 33.3466 -83.8835 174° South  Level Estimated
Fri 02:45:32 PM 33.4828 -84.3900 176° South 322 371 6,000  Level Atlanta Center
Fri 02:46:32 PM 33.4097 -84.3400 150° Southeast 300 345 7,800 2,400 Climbing Atlanta Center
Fri 02:47:32 PM 33.3347 -84.2675 141° Southeast 307 353 10,800 2,667 Climbing Atlanta Center
Fri 02:49:32 PM 33.1869 -84.1108 138° Southeast 346 398 15,800 2,067 Climbing Atlanta Center
Fri 02:50:32 PM 33.0992 -84.0264 141° Southeast 383 441 17,000 1,250 Climbing Atlanta Center
Fri 02:51:32 PM 33.0178 -83.9447 140° Southeast 409 471 18,300 1,550 Climbing Atlanta Center
Fri 02:52:32 PM 32.9217 -83.8533 141° Southeast 430 495 20,100 2,850 Climbing Atlanta Center
Fri 02:53:32 PM 32.8275 -83.7569 139° Southeast 448 516 24,000 1,700 Climbing Atlanta Center
Fri 02:54:32 PM 32.7292 -83.6611 141° Southeast 453 521 23,500 500 Descending Atlanta Center
Fri 02:55:32 PM 32.6286 -83.5653 141° Southeast 453 521 25,000 750 Climbing Atlanta Center
Fri 02:56:32 PM 32.5258 -83.4622 140° Southeast 459 528 25,000  Level Atlanta Center
Fri 02:57:32 PM 32.4294 -83.3694 141° Southeast 459 528 25,000  Level Atlanta Center
Fri 02:58:32 PM 32.3328 -83.2767 141° Southeast 459 528 25,000  Level Atlanta Center
Fri 02:59:34 PM 32.2331 -83.1750 139° Southeast 462 532 25,000  Level Jacksonville Center
Fri 03:00:34 PM 32.1331 -83.0814 142° Southeast 462 532 25,000 -450 Level Jacksonville Center
Fri 03:01:34 PM 32.0369 -82.9881 141° Southeast 462 532 24,100 -500 Descending Jacksonville Center
Fri 03:02:34 PM 31.9431 -82.9000 141° Southeast 450 518 24,000 -700 Descending Jacksonville Center
Fri 03:03:34 PM 31.8511 -82.8094 140° Southeast 445 512 22,700 -1,500 Descending Jacksonville Center
Fri 03:04:34 PM 31.7614 -82.7214 140° Southeast 435 501 21,000 -1,800 Descending Jacksonville Center
Fri 03:05:34 PM 31.6714 -82.6386 142° Southeast 428 493 19,100 -1,700 Descending Jacksonville Center
Fri 03:06:34 PM 31.5814 -82.5536 141° Southeast 422 486 17,600 -1,550 Descending Jacksonville Center
Fri 03:07:34 PM 31.4894 -82.4711 143° Southeast 417 480 16,000 -800 Descending Jacksonville Center
Fri 03:08:34 PM 31.3953 -82.3986 147° Southeast 417 480 16,000  Level Jacksonville Center
Fri 03:09:34 PM 31.2989 -82.3286 148° Southeast 412 474 16,000  Level Jacksonville Center
Fri 03:10:33 PM 31.1897 -82.2467 147° Southeast 445 512 16,000  Level Jacksonville Center
Fri 03:10:52 PM 31.1564 -82.2225 148° Southeast 466 536 16,000  Level Jacksonville Center
Fri 03:11:34 PM 31.0850 -82.1697 148° Southeast 448 516 16,000  Level Jacksonville Center
Fri 03:11:53 PM 31.0367 -82.1311 146° Southeast 479 551 16,000  Level Jacksonville Center
Fri 03:12:34 PM 30.9739 -82.0858 148° Southeast 468 539 16,000 -98 Level Jacksonville Center
Fri 03:12:54 PM 30.9256 -82.0497 147° Southeast 472 543 15,900 -900 Descending Jacksonville Center
Fri 03:13:34 PM 30.8647 -82.0044 147° Southeast 475 547 15,100 -1,475 Descending Jacksonville Center
Fri 03:13:55 PM 30.8164 -81.9686 148° Southeast 461 531 14,400 -1,500 Descending Jacksonville Center
Fri 03:14:34 PM 30.7578 -81.9256 148° Southeast 475 547 13,600 -1,556 Descending Jacksonville Center
Fri 03:14:49 PM 30.7178 -81.8969 148° Southeast 456 525 13,000 -1,500 Descending Jacksonville Center
Fri 03:15:34 PM 30.6528 -81.8469 147° Southeast 465 535 12,100 -1,522 Descending Jacksonville Center
Fri 03:15:56 PM 30.6022 -81.8089 147° Southeast 449 517 11,300 -1,500 Descending Jacksonville Center
Fri 03:16:34 PM 30.5497 -81.7708 148° Southeast 453 521 10,600 -1,258 Descending Jacksonville Center
Fri 03:16:58 PM 30.4931 -81.7353 152° Southeast 438 504 10,000 -600 Descending Jacksonville Center
Fri 03:17:34 PM 30.4467 -81.6975 145° Southeast 447 514 10,000  Level Jacksonville Center
Fri 03:17:59 PM 30.3983 -81.6619 148° Southeast 386 444 10,000 -300 Level Jacksonville Center
Fri 03:18:34 PM 30.3583 -81.6311 146° Southeast 412 474 9,700 -1,200 Descending Jacksonville Center
Fri 03:18:59 PM 30.3186 -81.6053 151° Southeast 323 372 8,800 -1,800 Descending Jacksonville Center
Fri 03:19:34 PM 30.2828 -81.5767 145° Southeast 361 415 7,900 -1,770 Descending Jacksonville Center
Fri 03:20:00 PM 30.2447 -81.5414 141° Southeast 314 361 7,000 -1,793 Descending Jacksonville Center
Fri 03:21:01 PM 30.1856 -81.4700 134° Southeast 303 349 5,300 -1,475 Descending Jacksonville Center
Fri 03:22:02 PM 30.1306 -81.4036 134° Southeast 293 337 4,000 -836 Descending Jacksonville Center
Fri 03:23:03 PM 30.0817 -81.3419 132° Southeast 241 277 3,600 -488 Descending Jacksonville Center
Fri 03:24:05 PM 30.0350 -81.2875 135° Southeast 238 274 3,000 -443 Descending Jacksonville Center
Fri 03:25:05 PM 29.9864 -81.2283 133° Southeast 238 274 2,700 -694 Descending Jacksonville Center
Fri 03:26:06 PM 29.9322 -81.2461 196° South 214 246 1,600 -934 Descending Jacksonville Center
Fri 03:27:07 PM 29.9308 -81.3011 268° West 163 188 800 -439 Descending Jacksonville Center
Fri 03:28:09 PM 29.9439 -81.3297 298° West 170 196 700 -33 Descending Jacksonville Center
Fri 03:30:11 PM 29.9439 -81.3297 240° Southwest 170 196 700  Level Jacksonville Center

Login

Don't have an account? Register now (free) for customized features, flight alerts, and more!